This is the latest recevied weather packets stored in our database for station/object PY2UTU-WX. If no packets are shown the sender has not sent any weather packets the latest 10 day(s).
| Time | Temp. | Humidity | Pressure | Rain* | Wind** | Luminosity | Snow |
|---|---|---|---|---|---|---|---|
| 1777519641 | 21.11° C | 98% | 924.6 hPa | - | - | - | - |
| 1777518741 | 21.67° C | 98% | 924.5 hPa | - | - | - | - |
| 1777517841 | 21.67° C | 98% | 924.5 hPa | - | - | - | - |
| 1777516941 | 21.11° C | 98% | 924.6 hPa | - | - | - | - |
| 1777516041 | 20.56° C | 98% | 924.4 hPa | - | - | - | - |
| 1777515141 | 19.44° C | 98% | 924.5 hPa | - | - | - | - |
| 1777514241 | 20° C | 98% | 924.7 hPa | - | - | - | - |
| 1777513341 | 20° C | 98% | 925.3 hPa | - | - | - | - |
| 1777512441 | 19.44° C | 98% | 924.7 hPa | - | - | - | - |
| 1777511542 | 18.33° C | 98% | 924.7 hPa | - | - | - | - |
| 1777510641 | 17.78° C | 98% | 924.6 hPa | - | - | - | - |
| 1777509741 | 18.33° C | 98% | 924.4 hPa | - | - | - | - |
| 1777508841 | 18.89° C | 98% | 924.2 hPa | - | - | - | - |
| 1777507941 | 18.33° C | 98% | 924.4 hPa | - | - | - | - |
| 1777507041 | 18.89° C | 98% | 924.5 hPa | - | - | - | - |
| 1777506141 | 18.89° C | 98% | 924.3 hPa | - | - | - | - |
| 1777505241 | 18.33° C | 98% | 924 hPa | - | - | - | - |
| 1777504341 | 18.89° C | 98% | 923.6 hPa | - | - | - | - |
| 1777503441 | 19.44° C | 98% | 923.8 hPa | - | - | - | - |
| 1777502541 | 18.89° C | 98% | 923.6 hPa | - | - | - | - |
| 1777501641 | 18.89° C | 98% | 923.5 hPa | - | - | - | - |
| 1777500741 | 19.44° C | 98% | 923.5 hPa | - | - | - | - |
| 1777499841 | 18.33° C | 98% | 923.4 hPa | - | - | - | - |
| 1777498941 | 18.89° C | 98% | 923.1 hPa | - | - | - | - |
| 1777498041 | 18.33° C | 98% | 923.4 hPa | - | - | - | - |
* Rain since midnight (hover to see other rain measurements)
** Current wind speed in m/s (hover to see current wind gust speed)